www.pogodaiklimat.ru

Погода и климат >> Архив погоды >> Финляндия >> Хельсинки университет


ПОГОДА в Хельсинки университете

  • Прогноз погоды в Хельсинки университете
  • Монитор погоды в Хельсинки университете

АРХИВ ПОГОДЫ в Хельсинки университете

Время (UTC), дата Ветер
(напр.,м/с)
 
Видим.   Явления Облачность Т
(С)
Тd
(С)
f
(%)
Тe
(С)
Тes
(С)
Комфортность P
(гПа)
Po
(гПа)
Тmin
(С)
Tmax
(С)
R
(мм)
R24
(мм)
S
(см)
12 16.09 СЗ 5 50 км {ливн. осадки, дождь} 9/9 1000 м
[]
+12.4 +6.6 68 +10 +11 992.6 989.6
15 16.09 СЗ 4 50 км слаб. ливневой дождь 6/6 600 м
[]
+11.2 +7.3 77 +9 +9 994.3 991.3
18 16.09 СЗ 3 50 км слаб. ливневой дождь 9/9 1000 м
[]
+8.9 +8.0 94 +6 +6 995.8 992.8 +8.9 +13.7 0.2
21 16.09 З 4 45 км {ливн. осадки, метель} 9/1 300 м
[]
+8.4 +7.6 95 +5 +5 996.8 993.7
00 17.09 З 4 45 км {ливн. осадки, метель} 6/6
[]
+6.7 +5.9 95 +3 +3 996.9 993.8
03 17.09 З 3 24 км 6/0
[]
+5.0 +4.6 97 +1 +1 996.9 993.8
06 17.09 З 3 40 км 1/1
[]
+6.3 +5.1 92 +3 +4 997.0 993.9 +4.7 +8.9
09 17.09 З 3 50 км 9/9 1000 м
[]
+9.9 +5.9 76 +8 +8 997.3 994.3
12 17.09 СЗ 2 50 км 9/9 1000 м
[]
+11.3 +4.5 63 +10 +11 997.5 994.5
15 17.09 СЗ 4 50 км в посл. час морось {ливн. осадки, дождь} 9/9 1500 м
[]
+11.2 +3.6 59 +9 +9 997.4 994.3
18 17.09 С 2 50 км {ливн. осадки, дождь} 9/9 1000 м
[]
+9.2 +5.4 77 +8 +8 998.0 994.9 +6.3 +12.1
21 17.09 СЗ 2 50 км в посл. час дождь {морось} 9/9 1000 м
[]
+8.4 +6.4 87 +6 +6 998.4 995.4
00 18.09 С 3 50 км {дождь, морось} 6/6 1000 м
[]
+7.3 +6.4 94 +4 +4 999.3 996.2
03 18.09 С 4 50 км 6/6
[]
+7.3 +5.7 90 +4 +4 1000.5 997.4
06 18.09 С 5 50 км 9/9 1000 м
[]
+8.8 +5.8 81 +5 +5 1002.4 999.3 +6.9 +9.3
09 18.09 С 4 45 км 4/4 600 м
[]
+11.0 +3.4 59 +9 +11 1004.2 1001.2
12 18.09 С 3 40 км в посл. час дождь {ливн. осадки} 1/1 1500 м
[]
+11.0 +3.1 58 +9 +13 1005.9 1002.9
15 18.09 СЗ 5 50 км {ливн. осадки, дождь} 6/6 1500 м
[]
+9.4 +3.5 67 +6 +6 1007.8 1004.8
18 18.09 СЗ 3 50 км {ливн. осадки, дождь} 1/1 2000 м
[]
+5.7 +3.8 88 +2 +2 1009.9 1006.7 +5.6 +12.6 0.1
21 18.09 СЗ 3 50 км ясно +4.4 +2.5 87 +1 +1 1011.2 1008.0
00 19.09 СЗ 2 50 км ясно +2.0 +1.4 96 -1 -1 1012.2 1009.0
03 19.09 СЗ 2 22 км 9/9
[]
+1.2 +1.0 99 -2 -2 1012.7 1009.5
06 19.09 С 1 45 км 9/9
[]
+5.3 +3.2 86 +4 +4 1013.5 1010.3 +0.9 +5.8
09 19.09 З 3 50 км ясно +10.1 +0.6 52 +8 +12 1014.1 1011.0
12 19.09 ЮЗ 4 45 км 1/1 1500 м
[]
+12.4 +2.4 50 +11 +13 1013.9 1010.8
15 19.09 С 7 6000 м дождь {ливн. осадки} 6/6 600 м
[]
+7.3 +4.0 80 +3 +3 1014.4 1011.3
18 19.09 СЗ 4 50 км {ливн. осадки, дождь} ясно +5.2 +3.3 88 +1 +1 1015.9 1012.7 +5.0 +12.8 0.9
21 19.09 СЗ 4 50 км ясно +3.6 +2.4 92 -1 -1 1016.9 1013.7
00 20.09 СЗ 4 50 км ясно +2.3 +1.7 96 -3 -3 1017.6 1014.4
03 20.09 З 4 50 км ясно +0.8 +0.4 97 -5 -5 1017.5 1014.3
06 20.09 З 4 45 км ясно +4.3 +1.3 81 0 +1 1017.2 1014.1 +0.6 +5.6
09 20.09 З 3 45 км ясно +9.6 +2.3 60 +8 +11 1017.1 1014.0
12 20.09 З 4 45 км 9/9 1000 м
[]
+11.8 +1.3 49 +10 +10 1016.1 1013.0
15 20.09 З 3 50 км 4/4 2000 м
[]
+10.2 +2.3 58 +8 +9 1015.2 1012.1
18 20.09 ЮЗ 3 50 км 9/4 1000 м
[]
+7.8 +4.8 81 +5 +5 1014.5 1011.4 +4.3 +12.1
21 20.09 З 2 50 км {ливн. осадки, морось} 1/1
[]
+6.1 +4.6 90 +4 +4 1013.4 1010.3
00 21.09 ЮВ 2 50 км морось {ливн. осадки} 10/10 600 м
[]
+7.2 +5.8 91 +5 +5 1011.3 1008.1
03 21.09 В 3 7000 м слаб. дождь {морось} 10/10 300 м
[]
+7.7 +6.8 94 +5 +5 1008.7 1005.6
06 21.09 З 2 19 км слаб. дождь {морось} 9/9 50 м
[]
+8.4 +8.1 98 +6 +6 1007.5 1004.4 +5.5 +8.5 2
09 21.09 СЗ 2 50 км {дождь, метель} 10/10 200 м
[]
+9.6 +7.5 87 +8 +8 1007.8 1004.8
12 21.09 СЗ 4 8000 м морось {дождь} 10/10 300 м
[]
+9.9 +7.9 87 +7 +7 1008.2 1005.2
15 21.09 СЗ 2 50 км {дождь, морось} 10/10 600 м
[]
+9.7 +6.9 83 +8 +8 1008.5 1005.4
18 21.09 СЗ 3 8000 м слаб. ливневой дождь 10/10 100 м
[]
+7.9 +7.2 95 +5 +5 1009.4 1006.3 +7.9 +10.6 0.2
21 21.09 СЗ 3 50 км в посл. час морось {ливн. осадки} 9/9 300 м
[]
+7.2 +6.6 96 +4 +4 1010.3 1007.2
00 22.09 СЗ 3 50 км {ливн. осадки, дождь} ясно +4.8 +3.9 94 +1 +1 1011.5 1008.4
03 22.09 СЗ 4 50 км 1/1
[]
+3.5 +2.8 95 -1 -1 1013.0 1009.8
06 22.09 СЗ 4 50 км ясно +5.0 +2.8 86 +1 +1 1014.6 1011.5 +3.2 +8.0 1
09 22.09 СЗ 4 45 км 1/1 600 м
[]
+8.8 +1.9 62 +6 +9 1016.1 1013.0
12 22.09 СЗ 5 40 км 1/1 1000 м
[]
+9.7 -0.3 50 +7 +9 1017.2 1014.1
15 22.09 СЗ 5 50 км 1/1 1000 м
[]
+9.3 -0.7 50 +6 +7 1018.5 1015.3
18 22.09 СЗ 4 50 км ясно +4.1 +0.5 77 -0 -0 1020.1 1016.9 +4.1 +10.4
21 22.09 СЗ 4 50 км ясно +3.7 +0.2 78 -1 -1 1021.3 1018.1
00 23.09 СЗ 3 50 км ясно +0.6 -0.3 94 -4 -4 1022.9 1019.6
03 23.09 СЗ 3 50 км ясно -0.1 -0.6 96 -5 -5 1023.4 1020.2
06 23.09 З 3 45 км ясно +3.0 +1.0 87 -1 -0 1023.8 1020.6 -0.4 +4.8
09 23.09 СЗ 3 45 км 1/1 600 м
[]
+9.1 +1.2 58 +7 +10 1023.4 1020.2

 

Местоположение метеостанции Хельсинки университет (Финляндия): широта 60.20 долгота 24.96 высота над уровнем моря 28 м.

В архиве по умолчанию представлена погода в Хельсинки университете за последнюю неделю. Архивные данные за месяц целиком и за предыдущие месяцы, начиная с января 2011 года, Вы можете получить, выбрав интересующий диапазон дат из раскрывающегося списка и нажав кнопку "Ввод!".


*Определитесь, кто Вы:
робот инопланетянин человек

Внимание! Время в таблицах - всемирное. Для получения местного времени необходимо прибавить поправку, которая равна 1 ч.

Смотрите также архив погоды в соседних городах и на ближайших метеорологических станциях:

Погода в Хельсинки Кайсаниеми (Финляндия) (2 км)
Погода в Эспо Тапиола (Финляндия) (10 км)
Погода на Острове Хармая (Финляндия) (11 км)
Погода в Хельсинки (Финляндия) (14 км)
Погода в Эспо Нууксио (Финляндия) (24 км)
Погода на Хельсинском маяке (Финляндия) (28 км)
Погода в Килпилахти (Финляндия) (34 км)
Погода на Эмасало (Финляндия) (37 км)
Погода в Нурмиярви (Финляндия) (38 км)
Погода в Вихти (Финляндия) (39 км)

Пояснения к столбцам:

Ветер - указаны скорость ветра в м/с - средняя за 10 мин, порывы в срок и между сроками (в фигурных скобках) и направление, откуда дует ветер: С - северный, СВ - северо-восточный, В - восточный, ЮВ - юго-восточный, Ю - южный, ЮЗ - юго-западный, З - западный, СЗ - северо-западный.
Видимость - горизонтальная дальность видимости в метрах или километрах. При видимости от 1 до 10 км при отсутствии осадков обычно наблюдается дымка, при ухудшении видимости до 1 км и менее - туман. В сухую погоду видимость может ухудшаться дымом, пылью или мглою.
Явления - указаны атмосферные явления, наблюдавшиеся в срок или в последний час перед сроком; фигурными скобками обозначены явления, наблюдавшиеся между сроками (за 1-3 часа до срока); квадратными скобками обозначены град или гололедные отложения с указанием их диаметра в мм.
Облачность - указаны через наклонную черту общая и нижняя облачность в баллах и высота нижней границы облаков в метрах; квадратными скобками обозначены формы облаков: Ci - перистые, Cs - перисто-слоистые, Cc - перисто-кучевые, Ac - высококучевые, As - высокослоистые, Sc - слоисто-кучевые, Ns - слоисто-дождевые, Cu - кучевые, Cb - кучево-дождевые. Подробнее классификацию облаков см. в Атласе облаков (PDF).
T - Температура воздуха - температура, измеренная на высоте 2 м над землей.
Td - Температура точки росы - температура, при понижении до которой содержащийся в воздухе водяной пар достигнет насыщения.
f - Относительная влажность воздуха - влажноcть воздуха, измеренная на высоте 2 м над землей.
Te - Эффективная температура - температура, которую ощущает одетый по сезону человек в тени. Характеристика душности погоды. При расчете учитывается влияние влажности воздуха и скорости ветра на теплоощущения человека.
Tes - Эффективная температура на солнце - температура, которую ощущает человек, с поправкой на солнечный нагрев. Характеристика знойности погоды. Зависит от высоты солнца над горизонтом, облачности и скорости ветра. Ночью, в пасмурную погоду, а также при ветре 12 м/с и более поправка равна нулю.
P - Атмосферное давление - приведенное к уровню моря атмосферное давление.
Po - Атмосферное давление - измеренное на уровне метеостанции атмосферное давление.
Tmin - Минимальная температура - минимум температуры воздуха на высоте 2 м над землей.
Tmax - Максимальная температура - максимум температуры воздуха на высоте 2 м над землей.
R - Количество осадков - Количество выпавших осадков за период времени, мм. При наведении курсора мыши на число - период времени, за который выпало указанное количество осадков.
R24 - Количество осадков - Количество выпавших осадков за 24 часа, мм.
S - Снежный покров - Высота снежного покрова, см. При наведении курсора мыши на число - состояние снежного покрова и степень покрытия местности в баллах.